Terminal Aerodrome Forecast
Issued by NWS Jackson, MS

Home | Current Version | Previous Version | Text Only | Print | Product List | Glossary On
Versions: 1 2 3 4 5 6 7 8 9 10 11 12 13 14 15 16
000
FTUS44 KJAN 271140
TAFHBG
TAF
KHBG 271140Z 2712/2812 03003KT P6SM BKN200
     FM271400 08010KT P6SM SCT020 BKN150
     FM272200 09006KT P6SM VCSH OVC050
     FM280100 09012KT 6SM -RA BR OVC015
     FM280500 08011KT 5SM -RA BR VCTS BKN010 OVC020CB=

USA.gov is the U.S. government's official web portal to all federal, state and local government web resources and services.